Flag for U.S.A. Weather past 2 weeks in Key West, Florida, U.S.A.

Now
76 °F

Clear.


Feels Like: 77 °F
Forecast: 72 / 79 °F
Wind: 10 mph from Southeast

Location: Key West International Airport

Current Time: Dec 28, 2014 at 2:34:27 AM

Latest Report: Dec 28, 2014 at 1:53 AM


Visibility: 10 mi

Pressure: 30.12 "Hg

Humidity: 74%

Dew point: 67 °F

Location of Key WestLocation

Historic Weather in Key West — Graph

°F

Key West temperature yesterday

Maximum temperature yesterday: 80 °F (at 2:53 PM)
Minimum temperature yesterday: 71 °F (at 4:53 AM)
Average temperature yesterday: 75 °F

Past Weeks' High & Low Weather Summary

 TemperatureHumidityPressure
High81 °F (Dec 23, 11:53 AM)100% (Dec 27, 4:53 AM)30.22 "Hg (Dec 27, 4:53 AM)
Low62 °F (Dec 13, 12:53 AM)50% (Dec 17, 12:53 PM)29.88 "Hg (Dec 23, 5:53 PM)
Average72 °F78%30.07 "Hg
* Reported Dec 13 12:53 AM — Dec 28 12:53 AM, Key West, Weather by CustomWeather, © 2014

Note: Actual official high and low records may vary slightly from our data, if they occured in-between our weather recording intervals... More about our weather records

Advertising

Key West weather history for previous 24 hours

 ConditionsComfort  
Time TempWeatherWind HumidityBarometerVisibility
12:53 AM
Dec 28
76 °FClear.10 mph77%30.13 "Hg10 mi
11:53 PM
Dec 27
76 °FPassing clouds.13 mph77%30.14 "Hg10 mi
10:53 PM77 °FPassing clouds.14 mph71%30.15 "Hg10 mi
9:53 PM77 °FPassing clouds.13 mph77%30.16 "Hg10 mi
8:53 PM76 °FPassing clouds.13 mph80%30.15 "Hg10 mi
7:53 PM76 °FPassing clouds.10 mph77%30.16 "Hg10 mi
6:53 PM76 °FPassing clouds.13 mph77%30.14 "Hg10 mi
5:53 PM76 °FClear.8 mph77%30.13 "Hg10 mi
4:53 PM78 °FSunny.10 mph71%30.13 "Hg10 mi
3:53 PM79 °FSunny.13 mph72%30.14 "Hg10 mi
2:53 PM80 °FSunny.12 mph71%30.14 "Hg10 mi
1:53 PM79 °FSunny.13 mph72%30.14 "Hg10 mi
12:53 PM79 °FSunny.10 mph74%30.17 "Hg10 mi
11:53 AM77 °FSunny.6 mph85%30.19 "Hg10 mi
10:53 AM75 °FSunny.8 mph90%30.22 "Hg10 mi
9:53 AM74 °FSunny.6 mph94%30.22 "Hg10 mi
9:00 AM72 °FFog.7 mph100%30.21 "Hg6 mi
7:53 AM71 °FFog.7 mph100%30.18 "Hg1 mi
6:53 AM72 °FFog.6 mph97%30.16 "Hg1 mi
5:53 AM71 °FFog.8 mph100%30.14 "Hg1 mi
4:53 AM71 °FFog.8 mph100%30.13 "Hg1 mi
3:53 AM72 °FFog.8 mph97%30.12 "Hg2 mi
2:53 AM72 °FClear.6 mph97%30.12 "Hg9 mi
Weather by CustomWeather, © 2014

See weather overviewHow to use our weather pages